Time,TemperatureF,DewpointF,PressureIn,WindDirection,WindDirectionDegrees,WindSpeedMPH,WindSpeedGustMPH,Humidity,HourlyPrecipIn,Conditions,Clouds,dailyrainin,SoftwareType,DateUTC
2013-10-01 00:00:00,58.6,53.8,30.06,ESE,104,0.0,0.0,84,0.00,CLR,,0.00,WeatherDisplay:10.37,2013-10-01 04:00:00,
2013-10-01 00:05:00,58.6,53.8,30.06,ESE,104,0.0,0.0,84,0.00,CLR,,0.00,WeatherDisplay:10.37,2013-10-01 04:05:00,
2013-10-01 00:10:00,58.5,53.6,30.06,ESE,104,0.0,0.0,84,0.00,CLR,,0.00,WeatherDisplay:10.37,2013-10-01 04:10:00,
2013-10-01 00:20:00,58.5,54.0,30.06,ESE,104,0.0,0.0,85,0.00,CLR,,0.00,WeatherDisplay:10.37,2013-10-01 04:20:00,
2013-10-01 00:25:00,58.3,53.8,30.06,ESE,104,0.0,0.0,85,0.00,CLR,,0.00,WeatherDisplay:10.37,2013-10-01 04:25:00,
2013-10-01 00:30:00,58.3,53.8,30.06,ESE,104,0.0,0.0,85,0.00,CLR,,0.00,WeatherDisplay:10.37,2013-10-01 04:30:00,
2013-10-01 00:35:00,58.3,53.8,30.06,ESE,104,0.0,0.0,85,0.00,CLR,,0.00,WeatherDisplay:10.37,2013-10-01 04:35:00,
2013-10-01 00:40:00,58.1,53.6,30.06,ESE,104,0.0,0.0,85,0.00,CLR,,0.00,WeatherDisplay:10.37,2013-10-01 04:40:00,
2013-10-01 00:45:00,58.1,53.6,30.06,ESE,104,0.0,0.0,85,0.00,CLR,,0.00,WeatherDisplay:10.37,2013-10-01 04:45:00,
2013-10-01 00:50:00,58.1,53.6,30.06,ESE,104,0.0,0.0,85,0.00,CLR,,0.00,WeatherDisplay:10.37,2013-10-01 04:50:00,
2013-10-01 00:55:00,58.1,53.9,30.06,ESE,104,0.0,0.0,86,0.00,CLR,,0.00,WeatherDisplay:10.37,2013-10-01 04:55:00,
2013-10-01 01:00:00,58.0,53.8,30.06,ESE,104,0.0,0.0,86,0.00,CLR,,0.00,WeatherDisplay:10.37,2013-10-01 05:00:00,
2013-10-01 01:05:00,57.9,53.8,30.06,ESE,104,0.0,0.0,86,0.00,CLR,,0.00,WeatherDisplay:10.37,2013-10-01 05:05:00,
2013-10-01 01:10:00,57.7,53.6,30.06,ESE,104,0.0,0.0,86,0.00,CLR,,0.00,WeatherDisplay:10.37,2013-10-01 05:10:00,
2013-10-01 01:15:00,57.7,53.6,30.06,ESE,104,0.0,0.0,86,0.00,CLR,,0.00,WeatherDisplay:10.37,2013-10-01 05:15:00,
2013-10-01 01:20:00,57.7,53.6,30.06,ESE,104,0.0,0.0,86,0.00,CLR,,0.00,WeatherDisplay:10.37,2013-10-01 05:20:00,
2013-10-01 01:25:00,57.6,53.4,30.06,ESE,104,0.0,0.0,86,0.00,CLR,,0.00,WeatherDisplay:10.37,2013-10-01 05:25:00,
2013-10-01 01:30:00,57.6,53.7,30.06,ESE,104,0.0,0.0,87,0.00,CLR,,0.00,WeatherDisplay:10.37,2013-10-01 05:30:00,
2013-10-01 01:35:00,57.6,53.7,30.06,ESE,104,0.0,0.0,87,0.00,CLR,,0.00,WeatherDisplay:10.37,2013-10-01 05:35:00,
2013-10-01 01:40:00,57.4,53.5,30.06,ESE,104,0.0,0.0,87,0.00,CLR,,0.00,WeatherDisplay:10.37,2013-10-01 05:40:00,
2013-10-01 01:50:00,57.2,53.4,30.06,ESE,104,0.0,0.0,87,0.00,CLR,,0.00,WeatherDisplay:10.37,2013-10-01 05:50:00,
2013-10-01 02:00:00,57.2,53.4,30.06,ESE,104,0.0,0.0,87,0.00,CLR,,0.00,WeatherDisplay:10.37,2013-10-01 06:00:00,
2013-10-01 02:05:00,57.2,53.4,30.06,ESE,104,0.0,0.0,87,0.00,CLR,,0.00,WeatherDisplay:10.37,2013-10-01 06:05:00,
2013-10-01 02:10:00,57.0,53.5,30.06,ESE,104,0.0,0.0,88,0.00,CLR,,0.00,WeatherDisplay:10.37,2013-10-01 06:10:00,
2013-10-01 02:15:00,57.0,53.5,30.06,ESE,104,0.0,0.0,88,0.00,CLR,,0.00,WeatherDisplay:10.37,2013-10-01 06:15:00,
2013-10-01 02:20:00,57.0,53.5,30.06,ESE,104,0.0,0.0,88,0.00,CLR,,0.00,WeatherDisplay:10.37,2013-10-01 06:20:00,
2013-10-01 02:25:00,56.8,53.3,30.06,ESE,104,0.0,0.0,88,0.00,CLR,,0.00,WeatherDisplay:10.37,2013-10-01 06:25:00,
2013-10-01 02:30:00,56.8,53.3,30.06,ESE,104,0.0,0.0,88,0.00,CLR,,0.00,WeatherDisplay:10.37,2013-10-01 06:30:00,
2013-10-01 02:35:00,56.8,53.3,30.06,ESE,104,0.0,0.0,88,0.00,CLR,,0.00,WeatherDisplay:10.37,2013-10-01 06:35:00,
2013-10-01 02:40:00,56.8,53.3,30.06,ESE,104,0.0,0.0,88,0.00,CLR,,0.00,WeatherDisplay:10.37,2013-10-01 06:40:00,
2013-10-01 02:45:00,56.8,53.3,30.06,ESE,104,0.0,0.0,88,0.00,CLR,,0.00,WeatherDisplay:10.37,2013-10-01 06:45:00,
2013-10-01 02:50:00,56.7,53.1,30.06,ESE,104,0.0,0.0,88,0.00,CLR,,0.00,WeatherDisplay:10.37,2013-10-01 06:50:00,
2013-10-01 02:55:00,56.7,53.1,30.06,ESE,104,0.0,0.0,88,0.00,CLR,,0.00,WeatherDisplay:10.37,2013-10-01 06:55:00,
2013-10-01 03:00:00,56.7,53.5,30.06,ESE,104,0.0,0.0,89,0.00,CLR,,0.00,WeatherDisplay:10.37,2013-10-01 07:00:00,
2013-10-01 03:05:00,56.5,53.3,30.06,ESE,104,0.0,0.0,89,0.00,CLR,,0.00,WeatherDisplay:10.37,2013-10-01 07:05:00,
2013-10-01 03:10:00,56.5,53.3,30.06,ESE,104,0.0,0.0,89,0.00,CLR,,0.00,WeatherDisplay:10.37,2013-10-01 07:10:00,
2013-10-01 03:20:00,56.5,53.3,30.06,ESE,104,0.0,0.0,89,0.00,CLR,,0.00,WeatherDisplay:10.37,2013-10-01 07:20:00,
2013-10-01 03:25:00,56.5,53.3,30.06,ESE,104,0.0,0.0,89,0.00,CLR,,0.00,WeatherDisplay:10.37,2013-10-01 07:25:00,
2013-10-01 03:30:00,56.5,53.3,30.06,ESE,104,0.0,0.0,89,0.00,CLR,,0.00,WeatherDisplay:10.37,2013-10-01 07:30:00,
2013-10-01 03:35:00,56.5,53.3,30.06,ESE,104,0.0,0.0,89,0.00,CLR,,0.00,WeatherDisplay:10.37,2013-10-01 07:35:00,
2013-10-01 03:40:00,56.5,53.3,30.06,ESE,104,0.0,0.0,89,0.00,CLR,,0.00,WeatherDisplay:10.37,2013-10-01 07:40:00,
2013-10-01 03:45:00,56.5,53.6,30.06,ESE,104,0.0,0.0,90,0.00,CLR,,0.00,WeatherDisplay:10.37,2013-10-01 07:45:00,
2013-10-01 03:50:00,56.5,53.6,30.06,ESE,104,0.0,0.0,90,0.00,CLR,,0.00,WeatherDisplay:10.37,2013-10-01 07:50:00,
2013-10-01 03:55:00,56.5,53.6,30.06,ESE,104,0.0,0.0,90,0.00,CLR,,0.00,WeatherDisplay:10.37,2013-10-01 07:55:00,
2013-10-01 04:00:00,56.5,53.6,30.06,ESE,104,0.0,0.0,90,0.00,CLR,,0.00,WeatherDisplay:10.37,2013-10-01 08:00:00,
2013-10-01 04:05:00,56.5,53.6,30.06,ESE,104,0.0,0.0,90,0.00,CLR,,0.00,WeatherDisplay:10.37,2013-10-01 08:05:00,
2013-10-01 04:10:00,56.3,53.4,30.06,ESE,104,0.0,0.0,90,0.00,CLR,,0.00,WeatherDisplay:10.37,2013-10-01 08:10:00,
2013-10-01 04:20:00,56.1,53.5,30.06,ESE,104,0.0,0.0,91,0.00,CLR,,0.00,WeatherDisplay:10.37,2013-10-01 08:20:00,
2013-10-01 04:25:00,56.1,53.5,30.06,ESE,104,0.0,0.0,91,0.00,CLR,,0.00,WeatherDisplay:10.37,2013-10-01 08:25:00,
2013-10-01 04:30:00,56.1,53.5,30.06,ESE,104,0.0,0.0,91,0.00,CLR,,0.00,WeatherDisplay:10.37,2013-10-01 08:30:00,
2013-10-01 04:40:00,55.9,53.4,30.06,ESE,104,0.0,0.0,91,0.00,CLR,,0.00,WeatherDisplay:10.37,2013-10-01 08:40:00,
2013-10-01 04:45:00,55.9,53.6,30.06,ESE,104,0.0,0.0,92,0.00,CLR,,0.00,WeatherDisplay:10.37,2013-10-01 08:45:00,
2013-10-01 04:55:00,55.9,53.6,30.06,ESE,104,0.0,0.0,92,0.00,CLR,,0.00,WeatherDisplay:10.37,2013-10-01 08:55:00,
2013-10-01 05:00:00,55.8,53.5,30.09,ESE,104,0.0,0.0,92,0.00,CLR,,0.00,WeatherDisplay:10.37,2013-10-01 09:00:00,
2013-10-01 05:05:00,55.8,53.5,30.09,ESE,104,0.0,0.0,92,0.00,CLR,,0.00,WeatherDisplay:10.37,2013-10-01 09:05:00,
2013-10-01 05:10:00,55.8,53.5,30.08,ESE,104,0.0,0.0,92,0.00,CLR,,0.00,WeatherDisplay:10.37,2013-10-01 09:10:00,
2013-10-01 05:20:00,55.8,53.5,30.06,ESE,104,0.0,0.0,92,0.00,CLR,,0.00,WeatherDisplay:10.37,2013-10-01 09:20:00,
2013-10-01 05:25:00,55.8,53.8,30.06,ESE,104,0.0,0.0,93,0.00,CLR,,0.00,WeatherDisplay:10.37,2013-10-01 09:25:00,
2013-10-01 05:30:00,55.8,53.8,30.06,ESE,104,0.0,0.0,93,0.00,CLR,,0.00,WeatherDisplay:10.37,2013-10-01 09:30:00,
2013-10-01 05:45:00,55.8,53.8,30.06,ESE,104,0.0,0.0,93,0.00,CLR,,0.00,WeatherDisplay:10.37,2013-10-01 09:45:00,
2013-10-01 05:50:00,55.7,53.7,30.06,ESE,104,0.0,0.0,93,0.00,CLR,,0.00,WeatherDisplay:10.37,2013-10-01 09:50:00,
2013-10-01 05:55:00,55.6,53.6,30.07,ESE,104,0.0,0.0,93,0.00,CLR,,0.00,WeatherDisplay:10.37,2013-10-01 09:55:00,
2013-10-01 06:00:00,55.6,53.6,30.09,ESE,104,0.0,0.0,93,0.00,CLR,,0.00,WeatherDisplay:10.37,2013-10-01 10:00:00,
2013-10-01 06:05:00,55.5,53.5,30.09,ESE,104,0.0,0.0,93,0.00,CLR,,0.00,WeatherDisplay:10.37,2013-10-01 10:05:00,
2013-10-01 06:10:00,55.4,53.4,30.09,ESE,104,0.0,0.0,93,0.00,CLR,,0.00,WeatherDisplay:10.37,2013-10-01 10:10:00,
2013-10-01 06:15:00,55.4,53.4,30.09,ESE,104,0.0,0.0,93,0.00,CLR,,0.00,WeatherDisplay:10.37,2013-10-01 10:15:00,
2013-10-01 06:20:00,55.4,53.4,30.09,ESE,104,0.0,0.0,93,0.00,CLR,,0.00,WeatherDisplay:10.37,2013-10-01 10:20:00,
2013-10-01 06:25:00,55.2,53.2,30.09,ESE,104,0.0,0.0,93,0.00,CLR,,0.00,WeatherDisplay:10.37,2013-10-01 10:25:00,
2013-10-01 06:35:00,55.0,53.3,30.09,ESE,104,0.0,0.0,94,0.00,CLR,,0.00,WeatherDisplay:10.37,2013-10-01 10:35:00,
2013-10-01 06:40:00,55.0,53.3,30.09,ESE,104,0.0,0.0,94,0.00,CLR,,0.00,WeatherDisplay:10.37,2013-10-01 10:40:00,
2013-10-01 06:50:00,54.9,53.2,30.09,ESE,104,0.0,0.0,94,0.00,CLR,,0.00,WeatherDisplay:10.37,2013-10-01 10:50:00,
2013-10-01 06:55:00,54.9,53.2,30.09,ESE,104,0.0,0.0,94,0.00,CLR,,0.00,WeatherDisplay:10.37,2013-10-01 10:55:00,
2013-10-01 07:00:00,54.9,53.2,30.09,ESE,104,0.0,0.0,94,0.00,CLR,,0.00,WeatherDisplay:10.37,2013-10-01 11:00:00,
2013-10-01 07:05:00,54.9,53.2,30.09,ESE,104,0.0,0.0,94,0.00,CLR,,0.00,WeatherDisplay:10.37,2013-10-01 11:05:00,
2013-10-01 07:10:00,54.7,53.0,30.09,ESE,104,0.0,0.0,94,0.00,CLR,,0.00,WeatherDisplay:10.37,2013-10-01 11:10:00,
2013-10-01 07:20:00,54.7,53.0,30.09,ESE,104,0.0,0.0,94,0.00,CLR,,0.00,WeatherDisplay:10.37,2013-10-01 11:20:00,
2013-10-01 07:25:00,54.7,53.0,30.09,ESE,104,0.0,0.0,94,0.00,CLR,,0.00,WeatherDisplay:10.37,2013-10-01 11:25:00,
2013-10-01 07:30:00,54.5,52.8,30.09,ESE,104,0.0,0.0,94,0.00,CLR,,0.00,WeatherDisplay:10.37,2013-10-01 11:30:00,
2013-10-01 07:35:00,54.5,52.8,30.09,ESE,104,0.0,0.0,94,0.00,CLR,,0.00,WeatherDisplay:10.37,2013-10-01 11:35:00,
2013-10-01 07:40:00,54.5,52.8,30.09,ESE,104,0.0,0.0,94,0.00,CLR,,0.00,WeatherDisplay:10.37,2013-10-01 11:40:00,
2013-10-01 07:45:00,54.5,52.8,30.12,ESE,104,0.0,0.0,94,0.00,CLR,,0.00,WeatherDisplay:10.37,2013-10-01 11:45:00,
2013-10-01 07:50:00,54.3,52.9,30.12,ESE,104,0.0,0.0,95,0.00,CLR,,0.00,WeatherDisplay:10.37,2013-10-01 11:50:00,
2013-10-01 07:55:00,54.3,52.9,30.12,ESE,104,0.0,0.0,95,0.00,CLR,,0.00,WeatherDisplay:10.37,2013-10-01 11:55:00,
2013-10-01 08:00:00,54.5,53.1,30.12,ESE,104,0.0,0.0,95,0.00,CLR,,0.00,WeatherDisplay:10.37,2013-10-01 12:00:00,
2013-10-01 08:05:00,54.5,53.1,30.12,ESE,104,0.0,0.0,95,0.00,CLR,,0.00,WeatherDisplay:10.37,2013-10-01 12:05:00,
2013-10-01 08:10:00,54.7,53.3,30.12,ESE,104,0.0,0.0,95,0.00,CLR,,0.00,WeatherDisplay:10.37,2013-10-01 12:10:00,
2013-10-01 08:15:00,54.8,53.4,30.12,ESE,104,0.0,0.0,95,0.00,CLR,,0.00,WeatherDisplay:10.37,2013-10-01 12:15:00,
2013-10-01 08:20:00,55.0,53.6,30.12,ESE,104,0.0,0.0,95,0.00,CLR,,0.00,WeatherDisplay:10.37,2013-10-01 12:20:00,
2013-10-01 08:25:00,55.2,54.1,30.12,ESE,104,0.0,0.0,96,0.00,CLR,,0.00,WeatherDisplay:10.37,2013-10-01 12:25:00,
2013-10-01 08:30:00,55.4,54.3,30.12,ESE,104,0.0,0.0,96,0.00,CLR,,0.00,WeatherDisplay:10.37,2013-10-01 12:30:00,
2013-10-01 08:35:00,55.6,54.5,30.12,ESE,104,0.0,0.0,96,0.00,CLR,,0.00,WeatherDisplay:10.37,2013-10-01 12:35:00,
2013-10-01 08:40:00,55.9,54.7,30.12,ESE,104,0.0,0.0,96,0.00,CLR,,0.00,WeatherDisplay:10.37,2013-10-01 12:40:00,
2013-10-01 08:50:00,56.7,55.5,30.12,ESE,104,0.0,0.0,96,0.00,CLR,,0.00,WeatherDisplay:10.37,2013-10-01 12:50:00,
2013-10-01 08:55:00,57.2,56.4,30.12,ESE,104,0.0,0.0,97,0.00,CLR,,0.00,WeatherDisplay:10.37,2013-10-01 12:55:00,
2013-10-01 09:00:00,57.8,56.9,30.12,ESE,104,0.0,0.0,97,0.00,CLR,,0.00,WeatherDisplay:10.37,2013-10-01 13:00:00,
2013-10-01 09:05:00,58.4,57.6,30.12,ESE,104,0.0,0.0,97,0.00,CLR,,0.00,WeatherDisplay:10.37,2013-10-01 13:05:00,
2013-10-01 09:10:00,58.8,58.0,30.12,ESE,104,0.0,0.0,97,0.00,CLR,,0.00,WeatherDisplay:10.37,2013-10-01 13:10:00,
2013-10-01 09:20:00,59.7,59.7,30.12,ESE,104,0.0,0.0,100,0.00,CLR,,0.00,WeatherDisplay:10.37,2013-10-01 13:20:00,
2013-10-01 09:25:00,60.2,60.2,30.12,ESE,104,0.0,0.0,100,0.00,CLR,,0.00,WeatherDisplay:10.37,2013-10-01 13:25:00,
2013-10-01 09:30:00,61.1,61.1,30.12,ESE,102,0.0,0.0,100,0.00,CLR,,0.00,WeatherDisplay:10.37,2013-10-01 13:30:00,
2013-10-01 09:35:00,62.0,62.0,30.12,ENE,58,0.0,0.0,100,0.00,CLR,,0.00,WeatherDisplay:10.37,2013-10-01 13:35:00,
2013-10-01 09:40:00,63.0,63.0,30.12,North,2,0.0,0.0,100,0.00,CLR,,0.00,WeatherDisplay:10.37,2013-10-01 13:40:00,
2013-10-01 09:50:00,64.9,64.9,30.12,North,356,0.0,0.0,100,0.00,CLR,,0.00,WeatherDisplay:10.37,2013-10-01 13:50:00,
2013-10-01 09:55:00,65.5,65.5,30.12,North,357,0.0,0.0,100,0.00,CLR,,0.00,WeatherDisplay:10.37,2013-10-01 13:55:00,
2013-10-01 10:00:00,66.2,66.2,30.12,NNW,342,0.0,0.0,100,0.00,CLR,,0.00,WeatherDisplay:10.37,2013-10-01 14:00:00,
2013-10-01 10:05:00,66.7,66.7,30.12,NNW,339,0.0,0.0,100,0.00,CLR,,0.00,WeatherDisplay:10.37,2013-10-01 14:05:00,
2013-10-01 10:10:00,67.3,67.3,30.12,NNW,339,0.0,0.0,100,0.00,CLR,,0.00,WeatherDisplay:10.37,2013-10-01 14:10:00,
2013-10-01 10:15:00,67.6,66.8,30.12,NNW,335,0.0,0.0,97,0.00,CLR,,0.00,WeatherDisplay:10.37,2013-10-01 14:15:00,
2013-10-01 10:20:00,68.0,66.8,30.12,NNE,16,0.0,0.0,96,0.00,CLR,,0.00,WeatherDisplay:10.37,2013-10-01 14:20:00,
2013-10-01 10:30:00,68.6,66.8,30.12,North,357,0.0,0.0,94,0.00,CLR,,0.00,WeatherDisplay:10.37,2013-10-01 14:30:00,
2013-10-01 10:35:00,68.9,66.5,30.12,NW,315,0.0,0.0,92,0.00,CLR,,0.00,WeatherDisplay:10.37,2013-10-01 14:35:00,
2013-10-01 10:40:00,69.3,66.2,30.12,NNW,336,0.0,0.0,90,0.00,CLR,,0.00,WeatherDisplay:10.37,2013-10-01 14:40:00,
2013-10-01 10:45:00,69.6,65.9,30.12,NE,55,0.0,0.0,88,0.00,CLR,,0.00,WeatherDisplay:10.37,2013-10-01 14:45:00,
2013-10-01 10:50:00,69.8,65.4,30.12,ENE,65,0.0,0.0,86,0.00,CLR,,0.00,WeatherDisplay:10.37,2013-10-01 14:50:00,
2013-10-01 11:00:00,70.8,65.0,30.12,NNW,340,0.0,0.0,82,0.00,CLR,,0.00,WeatherDisplay:10.37,2013-10-01 15:00:00,
2013-10-01 11:05:00,71.5,65.0,30.12,NNW,344,0.0,5.0,80,0.00,CLR,,0.00,WeatherDisplay:10.37,2013-10-01 15:05:00,
2013-10-01 11:10:00,72.3,64.7,30.12,NW,316,0.0,3.0,77,0.00,CLR,,0.00,WeatherDisplay:10.37,2013-10-01 15:10:00,
2013-10-01 11:20:00,73.9,63.9,30.12,North,355,0.0,5.0,71,0.00,CLR,,0.00,WeatherDisplay:10.37,2013-10-01 15:20:00,
2013-10-01 11:25:00,74.7,63.0,30.12,North,359,0.0,0.0,67,0.00,CLR,,0.00,WeatherDisplay:10.37,2013-10-01 15:25:00,
2013-10-01 11:30:00,75.5,63.0,30.12,North,11,0.0,5.0,65,0.00,CLR,,0.00,WeatherDisplay:10.37,2013-10-01 15:30:00,
2013-10-01 11:35:00,76.3,62.3,30.12,North,10,0.0,0.0,62,0.00,CLR,,0.00,WeatherDisplay:10.37,2013-10-01 15:35:00,
2013-10-01 11:40:00,76.5,61.5,30.12,NNW,346,0.0,0.0,60,0.00,CLR,,0.00,WeatherDisplay:10.37,2013-10-01 15:40:00,
2013-10-01 11:50:00,76.5,59.6,30.12,SE,146,0.0,0.0,56,0.00,CLR,,0.00,WeatherDisplay:10.37,2013-10-01 15:50:00,
2013-10-01 11:55:00,76.6,59.3,30.12,NNE,33,0.0,0.0,55,0.00,CLR,,0.00,WeatherDisplay:10.37,2013-10-01 15:55:00,
2013-10-01 12:00:00,76.8,58.4,30.12,North,354,2.0,7.0,53,0.00,CLR,,0.00,WeatherDisplay:10.37,2013-10-01 16:00:00,
2013-10-01 12:05:00,77.3,58.8,30.12,NNW,333,0.0,5.0,53,0.00,CLR,,0.00,WeatherDisplay:10.37,2013-10-01 16:05:00,
2013-10-01 12:10:00,78.0,58.4,30.12,North,355,0.0,5.0,51,0.00,CLR,,0.00,WeatherDisplay:10.37,2013-10-01 16:10:00,
2013-10-01 12:15:00,78.6,57.9,30.12,North,3,0.0,0.0,49,0.00,CLR,,0.00,WeatherDisplay:10.37,2013-10-01 16:15:00,
2013-10-01 12:20:00,79.2,58.4,30.12,NNW,337,1.0,8.0,49,0.00,CLR,,0.00,WeatherDisplay:10.37,2013-10-01 16:20:00,
2013-10-01 12:25:00,79.9,57.8,30.12,NNW,340,0.0,7.0,47,0.00,CLR,,0.00,WeatherDisplay:10.37,2013-10-01 16:25:00,
2013-10-01 12:30:00,80.4,58.3,30.12,NNW,347,0.0,6.0,47,0.00,CLR,,0.00,WeatherDisplay:10.37,2013-10-01 16:30:00,
2013-10-01 12:40:00,81.6,57.6,30.12,NNW,328,0.0,5.0,44,0.00,CLR,,0.00,WeatherDisplay:10.37,2013-10-01 16:40:00,
2013-10-01 12:45:00,81.8,57.8,30.12,North,358,0.0,5.0,44,0.00,CLR,,0.00,WeatherDisplay:10.37,2013-10-01 16:45:00,
2013-10-01 12:50:00,81.5,57.5,30.12,North,352,0.0,5.0,44,0.00,CLR,,0.00,WeatherDisplay:10.37,2013-10-01 16:50:00,
2013-10-01 12:55:00,81.1,55.9,30.12,NW,323,0.0,0.0,42,0.00,CLR,,0.00,WeatherDisplay:10.37,2013-10-01 16:55:00,
2013-10-01 13:00:00,81.1,57.8,30.12,West,280,0.0,0.0,45,0.00,CLR,,0.00,WeatherDisplay:10.37,2013-10-01 17:00:00,
2013-10-01 13:05:00,81.8,53.7,30.12,NNW,335,0.0,0.0,38,0.00,CLR,,0.00,WeatherDisplay:10.37,2013-10-01 17:05:00,
2013-10-01 13:10:00,82.5,54.3,30.11,North,355,0.0,7.0,38,0.00,CLR,,0.00,WeatherDisplay:10.37,2013-10-01 17:10:00,
2013-10-01 13:20:00,82.5,55.0,30.09,NNW,347,0.0,6.0,39,0.00,CLR,,0.00,WeatherDisplay:10.37,2013-10-01 17:20:00,
2013-10-01 13:30:00,81.7,54.3,30.09,NNW,343,0.0,0.0,39,0.00,CLR,,0.00,WeatherDisplay:10.37,2013-10-01 17:30:00,
2013-10-01 13:35:00,81.9,55.9,30.09,NW,323,0.0,0.0,41,0.00,CLR,,0.00,WeatherDisplay:10.37,2013-10-01 17:35:00,
2013-10-01 13:40:00,81.9,55.2,30.09,NNW,328,0.0,0.0,40,0.00,CLR,,0.00,WeatherDisplay:10.37,2013-10-01 17:40:00,
2013-10-01 13:45:00,81.7,57.0,30.09,NNW,337,0.0,0.0,43,0.00,CLR,,0.00,WeatherDisplay:10.37,2013-10-01 17:45:00,
2013-10-01 13:50:00,81.5,55.5,30.09,WNW,283,0.0,0.0,41,0.00,CLR,,0.00,WeatherDisplay:10.37,2013-10-01 17:50:00,
2013-10-01 14:00:00,81.5,53.4,30.09,NE,50,0.0,7.0,38,0.00,CLR,,0.00,WeatherDisplay:10.37,2013-10-01 18:00:00,
2013-10-01 14:05:00,81.9,54.6,30.09,ESE,118,0.0,0.0,39,0.00,CLR,,0.00,WeatherDisplay:10.37,2013-10-01 18:05:00,
2013-10-01 14:10:00,82.5,55.8,30.09,SSE,162,0.0,0.0,40,0.00,CLR,,0.00,WeatherDisplay:10.37,2013-10-01 18:10:00,
2013-10-01 14:20:00,83.9,55.5,30.06,NNW,339,0.0,4.0,38,0.00,CLR,,0.00,WeatherDisplay:10.37,2013-10-01 18:20:00,
2013-10-01 14:25:00,84.4,54.5,30.06,WNW,303,0.0,8.0,36,0.00,CLR,,0.00,WeatherDisplay:10.37,2013-10-01 18:25:00,
2013-10-01 14:30:00,84.7,55.6,30.06,NW,320,0.0,8.0,37,0.00,CLR,,0.00,WeatherDisplay:10.37,2013-10-01 18:30:00,
2013-10-01 14:35:00,84.7,54.8,30.06,North,350,0.0,0.0,36,0.00,CLR,,0.00,WeatherDisplay:10.37,2013-10-01 18:35:00,
2013-10-01 14:40:00,84.7,55.6,30.06,North,1,1.0,5.0,37,0.00,CLR,,0.00,WeatherDisplay:10.37,2013-10-01 18:40:00,
2013-10-01 14:45:00,84.6,55.4,30.06,NNE,29,0.0,3.0,37,0.00,CLR,,0.00,WeatherDisplay:10.37,2013-10-01 18:45:00,
2013-10-01 14:50:00,84.4,54.5,30.06,NNE,28,2.0,4.0,36,0.00,CLR,,0.00,WeatherDisplay:10.37,2013-10-01 18:50:00,
2013-10-01 15:00:00,83.5,53.7,30.06,North,3,0.0,5.0,36,0.00,CLR,,0.00,WeatherDisplay:10.37,2013-10-01 19:00:00,
2013-10-01 15:05:00,82.9,54.0,30.06,NNW,348,0.0,7.0,37,0.00,CLR,,0.00,WeatherDisplay:10.37,2013-10-01 19:05:00,
2013-10-01 15:10:00,82.6,53.7,30.06,NNE,17,0.0,0.0,37,0.00,CLR,,0.00,WeatherDisplay:10.37,2013-10-01 19:10:00,
2013-10-01 15:15:00,82.2,54.0,30.06,NE,50,0.0,0.0,38,0.00,CLR,,0.00,WeatherDisplay:10.37,2013-10-01 19:15:00,
2013-10-01 15:20:00,81.5,53.5,30.06,North,356,0.0,0.0,38,0.00,CLR,,0.00,WeatherDisplay:10.37,2013-10-01 19:20:00,
2013-10-01 15:25:00,80.9,53.6,30.06,North,349,0.0,0.0,39,0.00,CLR,,0.00,WeatherDisplay:10.37,2013-10-01 19:25:00,
2013-10-01 15:30:00,80.4,53.2,30.06,North,1,0.0,0.0,39,0.00,CLR,,0.00,WeatherDisplay:10.37,2013-10-01 19:30:00,
2013-10-01 15:35:00,80.1,53.6,30.06,North,11,0.0,0.0,40,0.00,CLR,,0.00,WeatherDisplay:10.37,2013-10-01 19:35:00,
2013-10-01 15:40:00,79.9,53.4,30.06,NNE,15,0.0,0.0,40,0.00,CLR,,0.00,WeatherDisplay:10.37,2013-10-01 19:40:00,
2013-10-01 15:50:00,79.1,54.7,30.06,NNE,14,0.0,0.0,43,0.00,CLR,,0.00,WeatherDisplay:10.37,2013-10-01 19:50:00,
2013-10-01 15:55:00,78.8,55.0,30.06,NNE,18,0.0,0.0,44,0.00,CLR,,0.00,WeatherDisplay:10.37,2013-10-01 19:55:00,
2013-10-01 16:00:00,78.6,53.6,30.03,NE,40,0.0,0.0,42,0.00,CLR,,0.00,WeatherDisplay:10.37,2013-10-01 20:00:00,
2013-10-01 16:05:00,78.7,53.7,30.03,NNE,18,1.0,5.0,42,0.00,CLR,,0.00,WeatherDisplay:10.37,2013-10-01 20:05:00,
2013-10-01 16:10:00,78.8,54.4,30.03,NNW,343,0.0,0.0,43,0.00,CLR,,0.00,WeatherDisplay:10.37,2013-10-01 20:10:00,
2013-10-01 16:15:00,78.8,53.1,30.03,NNW,344,0.0,7.0,41,0.00,CLR,,0.00,WeatherDisplay:10.37,2013-10-01 20:15:00,
2013-10-01 16:20:00,78.8,53.1,30.03,NNW,348,0.0,7.0,41,0.00,CLR,,0.00,WeatherDisplay:10.37,2013-10-01 20:20:00,
2013-10-01 16:25:00,78.8,53.1,30.03,NNW,344,0.0,0.0,41,0.00,CLR,,0.00,WeatherDisplay:10.37,2013-10-01 20:25:00,
2013-10-01 16:30:00,78.8,53.1,30.03,North,354,0.0,0.0,41,0.00,CLR,,0.00,WeatherDisplay:10.37,2013-10-01 20:30:00,
2013-10-01 16:40:00,78.7,53.0,30.03,NNE,16,0.0,0.0,41,0.00,CLR,,0.00,WeatherDisplay:10.37,2013-10-01 20:40:00,
2013-10-01 16:45:00,78.6,53.6,30.03,North,3,0.0,0.0,42,0.00,CLR,,0.00,WeatherDisplay:10.37,2013-10-01 20:45:00,
2013-10-01 16:50:00,78.4,54.1,30.03,NNW,341,0.0,0.0,43,0.00,CLR,,0.00,WeatherDisplay:10.37,2013-10-01 20:50:00,
2013-10-01 16:55:00,78.3,53.3,30.03,NNW,331,0.0,0.0,42,0.00,CLR,,0.00,WeatherDisplay:10.37,2013-10-01 20:55:00,
2013-10-01 17:05:00,78.1,53.8,30.03,NNW,343,0.0,0.0,43,0.00,CLR,,0.00,WeatherDisplay:10.37,2013-10-01 21:05:00,
2013-10-01 17:10:00,77.9,54.2,30.03,NNW,343,0.0,0.0,44,0.00,CLR,,0.00,WeatherDisplay:10.37,2013-10-01 21:10:00,
2013-10-01 17:20:00,77.7,54.7,30.03,NNW,344,0.0,0.0,45,0.00,CLR,,0.00,WeatherDisplay:10.37,2013-10-01 21:20:00,
2013-10-01 17:25:00,77.5,54.5,30.03,NNW,340,0.0,0.0,45,0.00,CLR,,0.00,WeatherDisplay:10.37,2013-10-01 21:25:00,
2013-10-01 17:30:00,77.4,54.4,30.03,NNW,338,0.0,0.0,45,0.00,CLR,,0.00,WeatherDisplay:10.37,2013-10-01 21:30:00,
2013-10-01 17:40:00,77.2,54.8,30.03,NNW,341,0.0,0.0,46,0.00,CLR,,0.00,WeatherDisplay:10.37,2013-10-01 21:40:00,
2013-10-01 17:55:00,76.6,54.9,30.03,North,350,0.0,0.0,47,0.00,CLR,,0.00,WeatherDisplay:10.37,2013-10-01 21:55:00,
2013-10-01 18:05:00,76.2,54.5,30.03,North,350,0.0,0.0,47,0.00,CLR,,0.00,WeatherDisplay:10.37,2013-10-01 22:05:00,
2013-10-01 18:10:00,75.9,54.8,30.03,North,350,0.0,0.0,48,0.00,CLR,,0.00,WeatherDisplay:10.37,2013-10-01 22:10:00,
2013-10-01 18:20:00,75.6,55.1,30.03,North,350,0.0,0.0,49,0.00,CLR,,0.00,WeatherDisplay:10.37,2013-10-01 22:20:00,
2013-10-01 18:30:00,75.2,55.3,30.03,North,350,0.0,0.0,50,0.00,CLR,,0.00,WeatherDisplay:10.37,2013-10-01 22:30:00,
2013-10-01 18:40:00,74.8,55.5,30.03,North,350,0.0,0.0,51,0.00,CLR,,0.00,WeatherDisplay:10.37,2013-10-01 22:40:00,
2013-10-01 18:45:00,74.7,55.9,30.03,North,350,0.0,0.0,52,0.00,CLR,,0.00,WeatherDisplay:10.37,2013-10-01 22:45:00,
2013-10-01 18:55:00,74.1,56.4,30.04,North,350,0.0,0.0,54,0.00,CLR,,0.00,WeatherDisplay:10.37,2013-10-01 22:55:00,
2013-10-01 19:05:00,73.6,56.9,30.06,North,350,0.0,0.0,56,0.00,CLR,,0.00,WeatherDisplay:10.37,2013-10-01 23:05:00,
2013-10-01 19:10:00,73.3,57.1,30.06,North,350,0.0,0.0,57,0.00,CLR,,0.00,WeatherDisplay:10.37,2013-10-01 23:10:00,
2013-10-01 19:20:00,72.6,56.5,30.06,North,350,0.0,0.0,57,0.00,CLR,,0.00,WeatherDisplay:10.37,2013-10-01 23:20:00,
2013-10-01 19:25:00,72.1,56.5,30.06,North,350,0.0,0.0,58,0.00,CLR,,0.00,WeatherDisplay:10.37,2013-10-01 23:25:00,
2013-10-01 19:30:00,71.8,56.7,30.06,North,350,0.0,0.0,59,0.00,CLR,,0.00,WeatherDisplay:10.37,2013-10-01 23:30:00,
2013-10-01 19:40:00,71.1,56.5,30.06,North,350,0.0,0.0,60,0.00,CLR,,0.00,WeatherDisplay:10.37,2013-10-01 23:40:00,
2013-10-01 19:45:00,70.9,56.3,30.06,North,350,0.0,0.0,60,0.00,CLR,,0.00,WeatherDisplay:10.37,2013-10-01 23:45:00,
2013-10-01 19:50:00,70.5,56.4,30.06,North,350,0.0,0.0,61,0.00,CLR,,0.00,WeatherDisplay:10.37,2013-10-01 23:50:00,
2013-10-01 19:55:00,70.2,56.5,30.06,North,350,0.0,0.0,62,0.00,CLR,,0.00,WeatherDisplay:10.37,2013-10-01 23:55:00,
2013-10-01 20:00:00,70.0,56.8,30.06,North,350,0.0,0.0,63,0.00,CLR,,0.00,WeatherDisplay:10.37,2013-10-02 00:00:00,
2013-10-01 20:05:00,69.6,56.5,30.06,North,350,0.0,0.0,63,0.00,CLR,,0.00,WeatherDisplay:10.37,2013-10-02 00:05:00,
2013-10-01 20:10:00,69.4,56.7,30.06,North,350,0.0,0.0,64,0.00,CLR,,0.00,WeatherDisplay:10.37,2013-10-02 00:10:00,
2013-10-01 20:15:00,69.0,56.7,30.06,North,350,0.0,0.0,65,0.00,CLR,,0.00,WeatherDisplay:10.37,2013-10-02 00:15:00,
2013-10-01 20:20:00,68.7,56.9,30.06,North,350,0.0,0.0,66,0.00,CLR,,0.00,WeatherDisplay:10.37,2013-10-02 00:20:00,
2013-10-01 20:25:00,68.5,57.1,30.06,North,350,0.0,0.0,67,0.00,CLR,,0.00,WeatherDisplay:10.37,2013-10-02 00:25:00,
2013-10-01 20:30:00,68.4,57.0,30.06,North,350,0.0,0.0,67,0.00,CLR,,0.00,WeatherDisplay:10.37,2013-10-02 00:30:00,
2013-10-01 20:35:00,68.2,57.2,30.06,North,350,0.0,0.0,68,0.00,CLR,,0.00,WeatherDisplay:10.37,2013-10-02 00:35:00,
2013-10-01 20:40:00,68.0,57.4,30.06,North,350,0.0,0.0,69,0.00,CLR,,0.00,WeatherDisplay:10.37,2013-10-02 00:40:00,
2013-10-01 20:45:00,67.8,57.3,30.06,North,350,0.0,0.0,69,0.00,CLR,,0.00,WeatherDisplay:10.37,2013-10-02 00:45:00,
2013-10-01 20:50:00,67.6,57.5,30.06,North,350,0.0,0.0,70,0.00,CLR,,0.00,WeatherDisplay:10.37,2013-10-02 00:50:00,
2013-10-01 20:55:00,67.5,57.7,30.06,North,350,0.0,0.0,71,0.00,CLR,,0.00,WeatherDisplay:10.37,2013-10-02 00:55:00,
2013-10-01 21:00:00,67.3,57.6,30.06,North,350,0.0,0.0,71,0.00,CLR,,0.00,WeatherDisplay:10.37,2013-10-02 01:00:00,
2013-10-01 21:05:00,67.1,57.8,30.06,North,350,0.0,0.0,72,0.00,CLR,,0.00,WeatherDisplay:10.37,2013-10-02 01:05:00,
2013-10-01 21:10:00,67.1,58.1,30.07,North,350,0.0,0.0,73,0.00,CLR,,0.00,WeatherDisplay:10.37,2013-10-02 01:10:00,
2013-10-01 21:15:00,66.9,58.4,30.09,North,350,0.0,0.0,74,0.00,CLR,,0.00,WeatherDisplay:10.37,2013-10-02 01:15:00,
2013-10-01 21:20:00,66.7,58.2,30.09,North,350,0.0,0.0,74,0.00,CLR,,0.00,WeatherDisplay:10.37,2013-10-02 01:20:00,
2013-10-01 21:25:00,66.6,58.4,30.09,North,350,0.0,0.0,75,0.00,CLR,,0.00,WeatherDisplay:10.37,2013-10-02 01:25:00,
2013-10-01 21:30:00,66.6,58.4,30.09,North,350,0.0,0.0,75,0.00,CLR,,0.00,WeatherDisplay:10.37,2013-10-02 01:30:00,
2013-10-01 21:35:00,66.4,58.2,30.09,North,350,0.0,0.0,75,0.00,CLR,,0.00,WeatherDisplay:10.37,2013-10-02 01:35:00,
2013-10-01 21:40:00,66.2,58.4,30.09,North,350,0.0,0.0,76,0.00,CLR,,0.00,WeatherDisplay:10.37,2013-10-02 01:40:00,
2013-10-01 21:45:00,66.0,58.2,30.09,North,349,0.0,0.0,76,0.00,CLR,,0.00,WeatherDisplay:10.37,2013-10-02 01:45:00,
2013-10-01 21:50:00,66.0,58.6,30.09,North,349,0.0,0.0,77,0.00,CLR,,0.00,WeatherDisplay:10.37,2013-10-02 01:50:00,
2013-10-01 21:55:00,65.8,58.4,30.09,North,349,0.0,0.0,77,0.00,CLR,,0.00,WeatherDisplay:10.37,2013-10-02 01:55:00,
2013-10-01 22:00:00,65.7,58.3,30.09,North,349,0.0,0.0,77,0.00,CLR,,0.00,WeatherDisplay:10.37,2013-10-02 02:00:00,
2013-10-01 22:05:00,65.5,58.4,30.09,North,349,0.0,0.0,78,0.00,CLR,,0.00,WeatherDisplay:10.37,2013-10-02 02:05:00,
2013-10-01 22:10:00,65.3,58.3,30.09,North,349,0.0,0.0,78,0.00,CLR,,0.00,WeatherDisplay:10.37,2013-10-02 02:10:00,
2013-10-01 22:20:00,64.9,58.3,30.09,North,349,0.0,0.0,79,0.00,CLR,,0.00,WeatherDisplay:10.37,2013-10-02 02:20:00,
2013-10-01 22:25:00,64.8,58.1,30.09,North,349,0.0,0.0,79,0.00,CLR,,0.00,WeatherDisplay:10.37,2013-10-02 02:25:00,
2013-10-01 22:30:00,64.8,58.1,30.09,North,349,0.0,0.0,79,0.00,CLR,,0.00,WeatherDisplay:10.37,2013-10-02 02:30:00,
2013-10-01 22:35:00,64.6,57.9,30.09,North,349,0.0,0.0,79,0.00,CLR,,0.00,WeatherDisplay:10.37,2013-10-02 02:35:00,
2013-10-01 22:40:00,64.4,58.1,30.09,North,349,0.0,0.0,80,0.00,CLR,,0.00,WeatherDisplay:10.37,2013-10-02 02:40:00,
2013-10-01 22:45:00,64.2,57.9,30.09,North,349,0.0,0.0,80,0.00,CLR,,0.00,WeatherDisplay:10.37,2013-10-02 02:45:00,
2013-10-01 22:50:00,64.0,57.7,30.09,North,349,0.0,0.0,80,0.00,CLR,,0.00,WeatherDisplay:10.37,2013-10-02 02:50:00,
2013-10-01 22:55:00,63.9,57.9,30.09,North,349,0.0,0.0,81,0.00,CLR,,0.00,WeatherDisplay:10.37,2013-10-02 02:55:00,
2013-10-01 23:00:00,63.9,57.9,30.09,North,349,0.0,0.0,81,0.00,CLR,,0.00,WeatherDisplay:10.37,2013-10-02 03:00:00,
2013-10-01 23:05:00,63.7,57.7,30.09,North,349,0.0,0.0,81,0.00,CLR,,0.00,WeatherDisplay:10.37,2013-10-02 03:05:00,
2013-10-01 23:10:00,63.5,57.6,30.09,North,349,0.0,0.0,81,0.00,CLR,,0.00,WeatherDisplay:10.37,2013-10-02 03:10:00,
2013-10-01 23:15:00,63.5,57.9,30.09,North,349,0.0,0.0,82,0.00,CLR,,0.00,WeatherDisplay:10.37,2013-10-02 03:15:00,
2013-10-01 23:20:00,63.3,57.7,30.09,North,349,0.0,0.0,82,0.00,CLR,,0.00,WeatherDisplay:10.37,2013-10-02 03:20:00,
2013-10-01 23:25:00,63.1,57.6,30.09,North,349,0.0,0.0,82,0.00,CLR,,0.00,WeatherDisplay:10.37,2013-10-02 03:25:00,
2013-10-01 23:30:00,63.1,57.9,30.09,North,349,0.0,0.0,83,0.00,CLR,,0.00,WeatherDisplay:10.37,2013-10-02 03:30:00,
2013-10-01 23:35:00,63.0,57.7,30.09,North,349,0.0,0.0,83,0.00,CLR,,0.00,WeatherDisplay:10.37,2013-10-02 03:35:00,
2013-10-01 23:40:00,62.8,57.5,30.09,North,349,0.0,0.0,83,0.00,CLR,,0.00,WeatherDisplay:10.37,2013-10-02 03:40:00,
2013-10-01 23:45:00,62.8,57.5,30.09,North,349,0.0,0.0,83,0.00,CLR,,0.00,WeatherDisplay:10.37,2013-10-02 03:45:00,
2013-10-01 23:50:00,62.6,57.4,30.09,North,349,0.0,0.0,83,0.00,CLR,,0.00,WeatherDisplay:10.37,2013-10-02 03:50:00,
2013-10-01 23:55:00,62.6,57.7,30.09,North,349,0.0,0.0,84,0.00,CLR,,0.00,WeatherDisplay:10.37,2013-10-02 03:55:00,